GW0392 Weather Reports


Display with metric or nautical units.
time (UTC)temp
F
wind
direction
speed
MPH
gust
MPH
rain 1hr
in
rain 24hr
in
rain mn
in
humidity
%
barometer
mb
20260901123009 70 224 0.0 0.0 0.00 0.00 0.00 99 1021.0
20260901122503 70 224 0.0 0.0 0.00 0.00 0.00 99 1021.1
20260901122002 70 224 0.0 0.0 0.00 0.00 0.00 99 1021.0
20260901121457 70 224 0.0 0.0 0.00 0.00 0.00 99 1020.9
20260901120952 70 221 0.0 0.0 0.00 0.00 0.00 99 1021.1
20260901120447 70 221 0.0 0.0 0.00 0.00 0.00 99 1020.9
20260901115942 69 221 0.0 0.0 0.00 0.00 0.00 99 1021.0
20260901115442 69 221 0.0 0.0 0.00 0.00 0.00 99 1020.6
20260901114940 69 221 0.0 0.0 0.00 0.00 0.00 99 1020.6
20260901114435 69 221 0.0 0.0 0.00 0.00 0.00 99 1020.6
20260901113933 69 221 0.0 0.0 0.00 0.00 0.00 99 1020.6
20260901113433 69 221 0.0 0.0 0.00 0.00 0.00 99 1020.3
20260901112928 69 220 0.0 0.0 0.00 0.00 0.00 99 1020.5
20260901112423 69 223 0.0 0.0 0.00 0.00 0.00 99 1020.4
20260901111918 69 223 0.0 0.0 0.00 0.00 0.00 99 1020.4
20260901111416 69 223 0.0 0.0 0.00 0.00 0.00 99 1020.0
20260901110915 69 223 0.0 0.0 0.00 0.00 0.00 99 1020.1
20260901110411 69 223 0.0 0.0 0.00 0.00 0.00 99 1020.1
20260901105907 69 223 0.0 0.0 0.00 0.00 0.00 99 1020.3
20260901105402 69 220 0.0 0.0 0.00 0.00 0.00 99 1020.0
20260901104858 69 220 0.0 0.0 0.00 0.00 0.00 99 1020.1
20260901104353 69 220 0.0 0.0 0.00 0.00 0.00 99 1020.2
20260901103849 69 220 0.0 0.0 0.00 0.00 0.00 99 1019.9
20260901103348 70 220 0.0 0.0 0.00 0.00 0.00 99 1020.0
20260901102843 69 220 0.0 0.0 0.00 0.00 0.00 99 1019.9
20260901102338 69 219 0.0 0.0 0.00 0.00 0.00 99 1019.8
20260901101833 69 220 0.0 0.0 0.00 0.00 0.00 99 1019.9
20260901101333 69 219 0.0 0.0 0.00 0.00 0.00 99 1019.9
20260901100827 70 219 0.0 0.0 0.00 0.00 0.00 99 1020.0
20260901100322 70 220 0.0 0.0 0.00 0.00 0.00 99 1019.8
20260901095821 70 220 0.0 0.0 0.00 0.00 0.00 99 1019.9
20260901095318 70 220 0.0 0.0 0.00 0.00 0.00 99 1019.9
20260901094813 70 220 0.0 0.0 0.00 0.00 0.00 99 1019.6
20260901094308 70 219 0.0 0.0 0.00 0.00 0.00 99 1019.8
20260901093803 70 219 0.0 0.0 0.00 0.00 0.00 99 1019.7
20260901093301 70 219 0.0 0.0 0.00 0.00 0.00 99 1019.9
20260901092757 70 219 0.0 0.0 0.00 0.00 0.00 99 1019.7
20260901092254 70 219 0.0 0.0 0.00 0.00 0.00 99 1019.8
20260901091749 70 219 0.0 0.0 0.00 0.00 0.00 99 1019.8
20260901091244 70 219 0.0 0.0 0.00 0.00 0.00 99 1019.8
20260901090744 70 219 0.0 0.0 0.00 0.00 0.00 99 1019.7
20260901090239 70 219 0.0 0.0 0.00 0.00 0.00 99 1019.5
20260901085735 70 219 0.0 0.0 0.00 0.00 0.00 99 1019.5
20260901085230 70 219 0.0 0.0 0.00 0.00 0.00 99 1019.6
20260901084726 70 219 0.0 0.0 0.00 0.00 0.00 99 1019.6
20260901084222 70 219 0.0 0.0 0.00 0.00 0.00 99 1019.5
20260901083717 70 219 0.0 0.0 0.00 0.00 0.00 99 1019.4
20260901083216 70 219 0.0 0.0 0.00 0.00 0.00 99 1019.5
20260901082715 70 219 0.0 0.0 0.00 0.00 0.00 99 1019.3
20260901082210 70 219 0.0 0.0 0.00 0.00 0.00 99 1019.4
20260901081701 71 220 0.0 0.0 0.00 0.00 0.00 99 1019.5
20260901081200 71 220 0.0 0.0 0.00 0.00 0.00 99 1019.4
20260901080655 71 220 0.0 0.0 0.00 0.00 0.00 99 1019.4
20260901080154 71 220 0.0 0.0 0.00 0.00 0.00 99 1019.4
20260901075649 71 220 0.0 0.0 0.00 0.00 0.00 99 1019.3
20260901075149 71 220 0.0 0.0 0.00 0.00 0.00 98 1019.1
20260901074648 71 220 0.0 0.0 0.00 0.00 0.00 98 1019.4
20260901074144 71 220 0.0 0.0 0.00 0.00 0.00 98 1019.4
20260901073640 71 220 0.0 0.0 0.00 0.00 0.00 98 1019.1
20260901073135 71 220 0.0 0.0 0.00 0.00 0.00 98 1019.3
20260901072630 71 220 0.0 0.0 0.00 0.00 0.00 98 1019.2
20260901072125 71 220 0.0 0.0 0.00 0.00 0.00 98 1019.2
20260901071619 71 221 0.0 0.0 0.00 0.00 0.00 98 1019.2
20260901071119 71 220 0.0 0.0 0.00 0.00 0.00 97 1019.5
20260901070613 71 220 0.0 0.0 0.00 0.00 0.00 97 1019.3
20260901070109 71 221 0.0 0.0 0.00 0.00 0.00 97 1019.3
20260901065602 71 222 0.0 0.0 0.00 0.00 0.00 97 1019.4
20260901065057 71 222 0.0 0.0 0.00 0.00 0.00 97 1019.4
20260901064554 71 222 0.0 0.0 0.00 0.00 0.00 97 1019.4
20260901064050 71 220 0.0 0.0 0.00 0.00 0.00 97 1019.6
20260901063547 71 220 0.0 0.0 0.00 0.00 0.00 97 1019.6
20260901063043 71 223 0.0 0.0 0.00 0.00 0.00 96 1019.7
20260901062538 72 221 0.0 0.0 0.00 0.00 0.00 96 1019.9
20260901062034 72 221 0.0 0.0 0.00 0.00 0.00 96 1019.8
20260901061531 72 221 0.0 0.0 0.00 0.00 0.00 96 1019.7
20260901061031 72 221 0.0 0.0 0.00 0.00 0.00 96 1019.5
20260901060525 72 221 0.0 0.0 0.00 0.00 0.00 96 1019.6
20260901060020 72 221 0.0 0.0 0.00 0.00 0.00 95 1019.8
20260901055515 72 221 0.0 0.0 0.00 0.00 0.00 95 1019.5
20260901055012 72 221 0.0 0.0 0.00 0.00 0.00 95 1019.7
20260901054509 72 221 0.0 0.0 0.00 0.00 0.00 95 1019.8
20260901054005 72 221 0.0 0.0 0.00 0.00 0.00 95 1019.7
20260901053500 72 221 0.0 0.0 0.00 0.00 0.00 95 1019.7
20260901052956 72 221 0.0 0.0 0.00 0.00 0.00 95 1019.6
20260901052452 72 221 0.0 0.0 0.00 0.00 0.00 94 1019.6
20260901051950 72 221 0.0 0.0 0.00 0.00 0.00 94 1019.6
20260901051446 72 221 0.0 0.0 0.00 0.00 0.00 94 1019.8
20260901050945 72 221 0.0 0.0 0.00 0.00 0.00 94 1019.6
20260901050441 72 221 0.0 0.0 0.00 0.00 0.00 94 1019.7
20260901045940 72 221 0.0 0.0 0.00 0.00 0.00 94 1019.7
20260901045436 72 221 0.0 0.0 0.00 0.00 0.00 94 1019.4
20260901044931 72 221 0.0 0.0 0.00 0.00 0.00 93 1019.6
20260901044427 72 221 0.0 0.0 0.00 0.00 0.00 93 1019.7
20260901043922 73 223 0.0 0.0 0.00 0.00 0.00 93 1019.4
20260901043419 73 221 0.0 0.0 0.00 0.00 0.00 93 1019.4
20260901042918 73 221 0.0 0.0 0.00 0.00 0.00 93 1019.4
20260901042413 73 221 0.0 0.0 0.00 0.00 0.00 93 1019.5
20260901041908 73 221 0.0 0.0 0.00 0.00 0.00 93 1019.5
20260901041403 73 221 0.0 0.0 0.00 0.00 0.00 92 1019.3
20260901040903 73 221 0.0 0.0 0.00 0.00 0.00 92 1019.6
20260901040402 73 221 0.0 0.0 0.00 0.00 0.00 92 1019.5
20260901035856 73 221 0.0 0.0 0.00 0.00 0.00 92 1019.5
20260901035354 73 226 0.0 0.0 0.00 0.00 0.00 92 1019.4
20260901034853 73 226 0.0 0.0 0.00 0.00 0.00 92 1019.6
20260901034348 73 226 0.0 0.0 0.00 0.00 0.00 91 1019.5
20260901033843 74 226 0.0 0.0 0.00 0.00 0.00 91 1019.5
20260901033342 74 226 0.0 0.0 0.00 0.00 0.00 91 1019.5
20260901032841 74 226 0.0 0.0 0.00 0.00 0.00 91 1019.4
20260901032340 74 226 0.0 0.0 0.00 0.00 0.00 91 1019.5
20260901031836 74 225 0.0 0.0 0.00 0.00 0.00 91 1019.5
20260901031332 74 225 0.0 0.0 0.00 0.00 0.00 90 1019.5
20260901030831 74 226 0.0 0.0 0.00 0.00 0.00 90 1019.3
20260901030327 75 226 0.0 0.0 0.00 0.00 0.00 90 1019.5
20260901025826 75 226 0.0 0.0 0.00 0.00 0.00 90 1019.9
20260901025321 75 226 0.0 0.0 0.00 0.00 0.00 90 1019.7
20260901024816 75 225 0.0 0.0 0.00 0.00 0.00 91 1019.6
20260901024315 75 225 0.0 0.0 0.00 0.00 0.00 91 1019.6
20260901023813 75 226 0.0 0.0 0.00 0.00 0.00 90 1019.6
20260901023308 75 226 0.0 0.0 0.00 0.00 0.00 90 1019.5
20260901022804 76 226 0.0 0.0 0.00 0.00 0.00 90 1019.5
20260901022259 75 226 0.0 0.0 0.00 0.00 0.00 90 1019.4
20260901021754 76 226 0.0 0.0 0.00 0.00 0.00 90 1019.3
20260901021250 76 226 0.0 0.0 0.00 0.00 0.00 89 1019.2
20260901020745 76 226 0.0 0.0 0.00 0.00 0.00 89 1019.4
20260901020240 76 226 0.0 0.0 0.00 0.00 0.00 89 1019.1
20260901015735 77 226 0.0 0.0 0.00 0.00 0.00 88 1019.2
20260901015231 77 227 0.0 0.0 0.00 0.00 0.00 87 1019.2
20260901014730 77 227 0.0 0.0 0.00 0.00 0.00 87 1019.1
20260901014226 77 227 0.0 0.0 0.00 0.00 0.00 86 1019.0
20260901013721 77 227 0.0 0.0 0.00 0.00 0.00 86 1018.8
20260901013217 77 227 0.0 0.0 0.00 0.00 0.00 85 1018.8
20260901012712 77 227 0.0 0.0 0.00 0.00 0.00 85 1018.7
20260901012213 78 227 0.0 0.0 0.00 0.00 0.00 84 1018.8
20260901011708 78 227 0.0 0.0 0.00 0.00 0.00 84 1018.6
20260901011208 78 227 0.0 0.0 0.00 0.00 0.00 84 1018.6
20260901010702 78 227 0.0 0.0 0.00 0.00 0.00 83 1018.8
20260901010157 78 227 0.0 0.0 0.00 0.00 0.00 83 1018.5
20260901005656 79 227 0.0 0.0 0.00 0.00 0.00 82 1018.5
20260901005151 79 227 0.0 0.0 0.00 0.00 0.00 82 1018.4
20260901004651 79 227 0.0 0.0 0.00 0.00 0.00 79 1018.1
20260901004145 80 227 0.0 0.0 0.00 0.00 0.00 78 1018.2
20260901003635 80 227 0.0 0.0 0.00 0.00 0.00 78 1018.2
20260901003134 80 227 0.0 0.0 0.00 0.00 0.00 77 1018.1
20260901002633 81 227 0.0 0.0 0.00 0.00 0.00 76 1018.1
20260901002128 81 227 0.0 0.0 0.00 0.00 0.00 75 1018.1
20260901001624 81 227 0.0 0.0 0.00 0.00 0.00 75 1018.2
20260901001119 82 227 0.0 0.0 0.00 0.00 0.00 74 1018.1
20260901000614 82 227 0.0 0.0 0.00 0.00 0.00 74 1018.1
20260901000109 83 227 0.0 0.0 0.00 0.00 0.00 73 1018.2
20260831235602 83 227 0.0 0.0 0.00 0.00 0.00 71 1018.3
20260831235058 84 227 0.0 0.0 0.00 0.00 0.00 73 1018.3
20260831234552 84 227 0.0 0.0 0.00 0.00 0.00 71 1018.2
20260831234048 84 227 0.0 0.0 0.00 0.00 0.00 69 1018.2
20260831233543 85 227 0.0 0.0 0.00 0.00 0.00 73 1018.1
20260831233039 86 227 0.0 0.0 0.00 0.00 0.00 70 1018.1
20260831232534 87 227 0.0 0.0 0.00 0.00 0.00 67 1018.1
20260831232029 87 227 0.0 0.0 0.00 0.00 0.00 65 1018.0
20260831231526 88 227 0.0 0.0 0.00 0.00 0.00 66 1018.1
20260831231021 89 227 0.0 0.0 0.00 0.00 0.00 64 1018.2
20260831230516 89 227 0.0 0.0 0.00 0.00 0.00 64 1018.0
20260831230011 90 227 0.0 0.0 0.00 0.00 0.00 61 1018.3
20260831225506 90 227 0.0 0.0 0.00 0.00 0.00 58 1018.3
20260831225006 91 227 0.0 0.0 0.00 0.00 0.00 57 1018.1
20260831224501 91 227 0.0 0.0 0.00 0.00 0.00 56 1018.2
20260831223956 91 227 0.0 0.0 0.00 0.00 0.00 54 1018.4
20260831223452 91 227 0.0 0.0 0.00 0.00 0.00 54 1018.4
20260831222948 91 227 0.0 0.0 0.00 0.00 0.00 54 1018.3
20260831222443 91 227 0.0 0.0 0.00 0.00 0.00 55 1018.2
20260831221938 92 227 0.0 0.0 0.00 0.00 0.00 53 1018.2
20260831221434 92 222 0.0 0.0 0.00 0.00 0.00 53 1018.0
20260831220929 92 224 0.0 0.0 0.00 0.00 0.00 54 1017.8
20260831220424 92 224 0.0 0.0 0.00 0.00 0.00 54 1018.4
20260831215919 92 226 0.0 0.0 0.00 0.00 0.00 54 1018.1
20260831215415 92 219 0.0 0.0 0.00 0.00 0.00 51 1018.2
20260831214911 92 219 0.0 0.0 0.00 0.00 0.00 50 1018.4
20260831214408 93 219 0.0 0.0 0.00 0.00 0.00 51 1018.2
20260831213904 93 224 0.0 0.0 0.00 0.00 0.00 49 1018.5
20260831213400 93 218 0.0 1.0 0.00 0.00 0.00 49 1018.5
20260831212855 92 233 1.0 2.0 0.00 0.00 0.00 51 1018.5
20260831212352 92 224 0.0 0.0 0.00 0.00 0.00 51 1018.4
20260831211850 92 225 1.0 1.0 0.00 0.00 0.00 51 1018.7
20260831211345 92 224 1.0 1.0 0.00 0.00 0.00 50 1018.7
20260831210844 93 227 0.0 1.0 0.00 0.00 0.00 50 1018.8
20260831210340 93 227 0.0 0.0 0.00 0.00 0.00 50 1018.8
20260831205835 93 221 0.0 1.0 0.00 0.00 0.00 51 1018.7
20260831205331 92 227 0.0 0.0 0.00 0.00 0.00 52 1018.6
20260831204826 93 240 0.0 0.0 0.00 0.00 0.00 51 1018.6
20260831204325 93 227 0.0 1.0 0.00 0.00 0.00 51 1018.7
20260831203824 93 229 1.0 1.0 0.00 0.00 0.00 51 1018.8
20260831203318 93 235 1.0 1.0 0.00 0.00 0.00 51 1018.7
20260831202816 93 221 0.0 1.0 0.00 0.00 0.00 50 1018.9
20260831202307 93 230 1.0 2.0 0.00 0.00 0.00 51 1018.8
20260831201806 94 248 1.0 1.0 0.00 0.00 0.00 49 1019.0
20260831201305 94 226 0.0 0.0 0.00 0.00 0.00 49 1019.2
20260831200801 94 209 0.0 1.0 0.00 0.00 0.00 48 1019.1
20260831200256 94 217 0.0 0.0 0.00 0.00 0.00 50 1019.3
20260831195751 93 226 0.0 0.0 0.00 0.00 0.00 50 1019.3
20260831195247 93 228 0.0 1.0 0.00 0.00 0.00 50 1019.2
20260831194742 94 233 1.0 2.0 0.00 0.00 0.00 50 1019.2
20260831194238 94 233 0.0 0.0 0.00 0.00 0.00 48 1019.5
20260831193731 93 222 1.0 2.0 0.00 0.00 0.00 48 1019.5
20260831193227 93 216 0.0 1.0 0.00 0.00 0.00 51 1019.8
20260831192722 94 230 0.0 1.0 0.00 0.00 0.00 50 1019.6
20260831192217 93 223 1.0 2.0 0.00 0.00 0.00 50 1019.5
20260831191713 93 218 0.0 0.0 0.00 0.00 0.00 52 1019.7
20260831191209 94 239 0.0 0.0 0.00 0.00 0.00 51 1019.9
20260831190703 93 228 0.0 1.0 0.00 0.00 0.00 51 1019.9
20260831190203 92 231 1.0 1.0 0.00 0.00 0.00 52 1019.9
20260831185659 92 240 1.0 2.0 0.00 0.00 0.00 54 1019.9
20260831185154 92 223 0.0 1.0 0.00 0.00 0.00 55 1019.9
20260831184653 93 231 1.0 1.0 0.00 0.00 0.00 54 1020.2
20260831184149 93 236 1.0 2.0 0.00 0.00 0.00 54 1020.1
20260831183648 94 235 1.0 1.0 0.00 0.00 0.00 53 1020.2
20260831183148 94 229 0.0 1.0 0.00 0.00 0.00 54 1020.1
20260831182647 94 225 0.0 1.0 0.00 0.00 0.00 53 1020.4
20260831182143 93 216 1.0 1.0 0.00 0.00 0.00 55 1020.1
20260831181638 92 212 1.0 2.0 0.00 0.00 0.00 55 1020.3
20260831181137 90 218 1.0 1.0 0.00 0.00 0.00 59 1020.3
20260831180633 89 219 0.0 0.0 0.00 0.00 0.00 61 1020.5
20260831180127 91 183 2.0 2.0 0.00 0.00 0.00 60 1020.8
20260831175622 92 237 0.0 1.0 0.00 0.00 0.00 57 1020.7
20260831175120 91 218 0.0 0.0 0.00 0.00 0.00 59 1020.7
20260831174619 91 199 1.0 1.0 0.00 0.00 0.00 59 1020.6
20260831174114 91 216 0.0 0.0 0.00 0.00 0.00 61 1020.8
20260831173613 92 227 0.0 1.0 0.00 0.00 0.00 59 1020.7
20260831173109 92 213 1.0 2.0 0.00 0.00 0.00 59 1020.6
20260831172608 90 259 2.0 2.0 0.00 0.00 0.00 60 1020.9
20260831172103 90 235 0.0 1.0 0.00 0.00 0.00 61 1020.7
20260831171559 90 228 0.0 2.0 0.00 0.00 0.00 62 1021.0
20260831171056 89 243 1.0 1.0 0.00 0.00 0.00 62 1020.9
20260831170551 89 235 1.0 1.0 0.00 0.00 0.00 62 1020.9
20260831170049 91 233 0.0 0.0 0.00 0.00 0.00 60 1020.9
20260831165549 91 226 0.0 0.0 0.00 0.00 0.00 59 1021.1
20260831165046 91 221 0.0 0.0 0.00 0.00 0.00 59 1021.1
20260831164542 90 219 1.0 2.0 0.00 0.00 0.00 59 1021.2
20260831164037 90 223 0.0 1.0 0.00 0.00 0.00 60 1021.2
20260831163531 90 233 1.0 1.0 0.00 0.00 0.00 60 1021.4
20260831163027 89 222 0.0 2.0 0.00 0.00 0.00 61 1021.4
20260831162526 89 291 0.0 2.0 0.00 0.00 0.00 61 1021.5
20260831162024 89 216 0.0 2.0 0.00 0.00 0.00 62 1021.4
20260831161521 89 210 2.0 2.0 0.00 0.00 0.00 63 1021.5
20260831161016 89 226 1.0 1.0 0.00 0.00 0.00 65 1021.4
20260831160516 87 209 1.0 3.0 0.00 0.00 0.00 66 1021.7
20260831160011 87 238 1.0 2.0 0.00 0.00 0.00 66 1021.7
20260831155506 87 247 1.0 2.0 0.00 0.00 0.00 66 1021.7
20260831155001 87 299 1.0 2.0 0.00 0.00 0.00 68 1021.8
20260831154458 87 199 2.0 2.0 0.00 0.00 0.00 68 1021.7
20260831153956 87 217 1.0 2.0 0.00 0.00 0.00 69 1021.7
20260831153452 87 235 1.0 1.0 0.00 0.00 0.00 69 1021.5
20260831152949 87 218 0.0 0.0 0.00 0.00 0.00 69 1021.8
20260831152443 86 213 0.0 2.0 0.00 0.00 0.00 70 1021.6
20260831151938 86 221 0.0 0.0 0.00 0.00 0.00 72 1021.5
20260831151437 86 195 3.0 5.0 0.00 0.00 0.00 73 1021.7
20260831150933 85 206 0.0 0.0 0.00 0.00 0.00 73 1021.6
20260831150429 85 216 0.0 2.0 0.00 0.00 0.00 73 1021.8
20260831145928 85 221 0.0 1.0 0.00 0.00 0.00 74 1021.9
20260831145424 84 219 1.0 3.0 0.00 0.00 0.00 75 1021.9
20260831144920 84 214 0.0 1.0 0.00 0.00 0.00 76 1022.0
20260831144415 83 217 0.0 0.0 0.00 0.00 0.00 77 1021.9
20260831143910 83 218 0.0 0.0 0.00 0.00 0.00 77 1021.7
20260831143405 83 219 0.0 1.0 0.00 0.00 0.00 79 1021.8
20260831142901 82 226 0.0 0.0 0.00 0.00 0.00 79 1022.0
20260831142356 83 221 0.0 0.0 0.00 0.00 0.00 78 1021.8
20260831141850 83 220 0.0 0.0 0.00 0.00 0.00 78 1021.8
20260831141344 83 208 0.0 0.0 0.00 0.00 0.00 77 1021.7
20260831140839 83 214 0.0 0.0 0.00 0.00 0.00 78 1021.9
20260831140334 82 225 0.0 0.0 0.00 0.00 0.00 79 1021.6
20260831135832 81 222 0.0 0.0 0.00 0.00 0.00 81 1021.7
20260831135327 81 234 0.0 0.0 0.00 0.00 0.00 83 1021.8
20260831134823 80 226 0.0 0.0 0.00 0.00 0.00 85 1021.7
20260831134320 80 229 0.0 0.0 0.00 0.00 0.00 86 1021.6
20260831133819 78 221 0.0 0.0 0.00 0.00 0.00 89 1021.7
20260831133318 77 224 0.0 0.0 0.00 0.00 0.00 92 1021.9
20260831132814 76 226 0.0 0.0 0.00 0.00 0.00 92 1021.5
20260831132308 75 225 0.0 0.0 0.00 0.00 0.00 93 1021.8
20260831131803 75 228 0.0 0.0 0.00 0.00 0.00 95 1021.8
20260831131259 74 236 0.0 0.0 0.00 0.00 0.00 97 1021.9
20260831130753 73 225 0.0 0.0 0.00 0.00 0.00 99 1021.9
20260831130249 73 227 0.0 0.0 0.00 0.00 0.00 99 1021.7
20260831125748 72 225 0.0 0.0 0.00 0.00 0.00 99 1021.9
20260831125244 72 224 0.0 0.0 0.00 0.00 0.00 99 1021.6
20260831124738 72 222 0.0 0.0 0.00 0.00 0.00 99 1021.5
20260831124235 72 225 0.0 0.0 0.00 0.00 0.00 99 1021.6
20260831123734 71 225 0.0 0.0 0.00 0.00 0.00 99 1021.5
20260831123233 71 226 0.0 0.0 0.00 0.00 0.00 99 1021.5